Location: Camps Bay
(33.9517°S, 18.3844°E)
Time: 09:25:35
(UTC+00:00)

ALOS - Pass Details

Date: 18 January 2020
Orbit: 683 x 686 km, 97.8° (Epoch: 27 February)

Event Time Altitude Azimuth Distance (km) Brightness Sun altitude
Rises 03:11:37 0° 16° (NNE) 3,034 5.4 -8.4°
Reaches altitude 10° 03:13:50 10° 17° (NNE) 2,127 4.7 -8.0°
Maximum altitude 03:18:30 81° 102° (ESE) 704 2.5 -7.2°
Drops below altitude 10° 03:23:14 10° 190° (S) 2,156 5.1 -6.3°
Sets 03:25:29 0° 190° (S) 3,080 5.9 -5.9°
